Location: La Brionne
(46.1728°N, 1.7849°E)
Time: 03:18:27
(UTC+00:00)

Cosmos 2219 Rocket - Pass Details

Date: 24 October 2021
Orbit: 827 x 848 km, 71.0° (Epoch: 26 November)

Event Time Altitude Azimuth Distance (km) Brightness Sun altitude
Rises 18:10:52 0° 159° (SSE) 3,353 5.1 -14.5°
Reaches altitude 10° 18:13:59 10° 142° (SE) 2,427 4.2 -15.0°
Enters shadow 18:15:33 15° 127° (SE) 2,093 3.8 -15.3°
